23 de mayo de 2022

Hora Código Tiempo Temp. Visibilidad Nubes Viento METAR/SPECI
18:30
V
19 °C 10 km+ 3.600 ft 250°   250° 3 kt METAR LFSL 231630Z AUTO 25003KT 180V310 9999 BKN036 BKN045 OVC060 19/13 Q1010 NOSIG
18:00
V
20 °C 10 km+ 3.200 ft 270°   270° 4 kt METAR LFSL 231600Z AUTO 27004KT 140V310 9999 BKN032 BKN041 OVC056 20/13 Q1010 NOSIG
17:30
V
19 °C 10 km+ 4.400 ft 260°   260° 5 kt METAR LFSL 231530Z AUTO 26005KT 170V300 9999 SCT033 BKN044 OVC058 19/13 Q1010 NOSIG
17:00
V
19 °C 10 km+ 5.600 ft 230°   230° 5 kt METAR LFSL 231500Z AUTO 23005KT 180V330 9999 FEW029 SCT037 OVC056 19/13 Q1010 NOSIG
16:30
V
20 °C 10 km+ 4.500 ft Var   Var 5 kt METAR LFSL 231430Z AUTO VRB05KT 9999 FEW031 BKN045 BKN056 20/13 Q1010 NOSIG
16:00
V
20 °C 10 km+ 4.700 ft 240°   240° 4 kt METAR LFSL 231400Z AUTO 24004KT 160V320 9999 SCT028 SCT034 OVC047 20/14 Q1010 NOSIG
15:30
V
20 °C 10 km+ 4.800 ft Var   Var 6 kt METAR LFSL 231330Z AUTO VRB06KT 9999 SCT027 SCT039 OVC048 20/13 Q1010 NOSIG
15:00
V
18 °C 10 km+ 3.000 ft 250°   250° 5 kt METAR LFSL 231300Z AUTO 25005KT 180V310 9999 SCT024 BKN030 BKN041 18/13 Q1010 NOSIG
14:30
V
18 °C 10 km+ 5.400 ft Var   Var 7 kt METAR LFSL 231230Z AUTO VRB07KT 9999 FEW026 OVC054 18/13 Q1010 NOSIG
14:00
M
17 °C 10 km+ 2.700 ft 260°   260° 6 kt METAR LFSL 231200Z AUTO 26006KT 200V310 9999 BKN027 OVC035 17/14 Q1010 NOSIG
13:30
V
18 °C 10 km+ 3.400 ft 240°   240° 5 kt METAR LFSL 231130Z AUTO 24005KT 180V310 9999 FEW020 BKN034 OVC044 18/15 Q1010 NOSIG
13:00
M
16 °C 10 km+ 1.900 ft 260°   260° 5 kt METAR LFSL 231100Z AUTO 26005KT 140V300 9999 FEW011 BKN019 OVC027 16/14 Q1010 NOSIG
12:30
I
16 °C 10 km+ 900 ft 250°   250° 5 kt METAR LFSL 231030Z AUTO 25005KT 170V310 9999 -DZ BKN009 OVC016 16/14 Q1010 BECMG BKN033
12:00
M
16 °C 10 km+ 1.000 ft 230°   230° 5 kt METAR LFSL 231000Z AUTO 23005KT 170V290 9999 BKN010 BKN018 OVC023 16/15 Q1010 BECMG BKN033
11:30
I
16 °C 9 km 500 ft 240°   240° 6 kt METAR LFSL 230930Z AUTO 24006KT 180V320 9000 -DZ BKN005 BKN009 BKN013 16/15 Q1010 BECMG BKN033
11:00
I
16 °C 4,5 km 600 ft 230°   230° 6 kt METAR LFSL 230900Z AUTO 23006KT 170V300 4500 DZ BR BKN006 OVC011 16/15 Q1009 BECMG 9999 NSW BKN033
10:30
I
16 °C 6 km 600 ft 220°   220° 6 kt METAR LFSL 230830Z AUTO 22006KT 140V300 6000 OVC006 16/15 Q1009 BECMG BKN033
10:00
I
16 °C 10 km+ 700 ft 220°   220° 6 kt METAR LFSL 230800Z AUTO 22006KT 160V270 9999 OVC007 16/15 Q1009 TEMPO 30020G30KT 4000 -SHRA SCT015 BKN040CB
09:30
I
16 °C 10 km+ 600 ft 200°   200° 6 kt METAR LFSL 230730Z AUTO 20006KT 160V250 9999 BKN006 OVC011 16/15 Q1009 TEMPO 30020G30KT 4000 -SHRA SCT015 BKN040CB
09:00
I
16 °C 10 km+ 600 ft 210°   210° 7 kt METAR LFSL 230700Z AUTO 21007KT 160V270 9999 BKN006 BKN010 BKN029 16/15 Q1009 TEMPO 30020G30KT 4000 -SHRA SCT015 BKN040CB
08:30
I
16 °C 6 km 700 ft 210°   210° 5 kt METAR LFSL 230630Z AUTO 21005KT 170V260 6000 -RA BKN007/// OVC011/// //////CB 16/15 Q1009 TEMPO 30020G30KT 4000 -SHRA SCT015 BKN040CB
08:00
I
17 °C 4,8 km 700 ft 210°   210° 3 kt METAR LFSL 230600Z AUTO 21003KT 160V270 9999 4800 -RADZ BKN007/// OVC020/// //////CB 17/16 Q1009 TEMPO 30020G30KT TSRA SCT015 BKN040CB
07:30
M
17 °C 10 km+ 1.300 ft 200°   200° 4 kt METAR LFSL 230530Z AUTO 20004KT 160V250 9999 SCT006/// BKN013/// OVC021/// //////TCU 17/16 Q1009 BECMG SCT035
07:00
M
17 °C 10 km+ 2.100 ft 230°   230° 3 kt METAR LFSL 230500Z AUTO 23003KT 170V320 9999 FEW008/// BKN021/// OVC026/// ///TCU 17/16 Q1008 TEMPO 30020G30KT TSRA SCT015 BKN060CB
06:30
M
17 °C 10 km+ 2.000 ft 220°   220° 4 kt METAR LFSL 230430Z AUTO 22004KT 180V310 9999 FEW010/// BKN020/// OVC027/// ///TCU 17/16 Q1009 TEMPO 30020G30KT TSRA SCT015 BKN060CB
06:00
M
17 °C 10 km+ 2.700 ft 240°   240° 3 kt METAR LFSL 230400Z AUTO 24003KT 190V320 9999 -RA FEW021/// BKN027/// OVC120/// //////TCU 17/16 Q1009 TEMPO 30020G30KT TSRA SCT015 BKN060CB
05:30
V
17 °C 10 km+ - 190°   190° 5 kt METAR LFSL 230330Z AUTO 19005KT 160V240 9999 //////CB 17/16 Q1009 TEMPO 30020G30KT TSRA
05:00
V
17 °C 10 km+ - 160°   160° 7 kt METAR LFSL 230300Z AUTO 16007KT 130V190 9999 //////CB 17/16 Q1009
04:30
V
18 °C 10 km+ - Var   Var 3 kt METAR LFSL 230230Z AUTO VRB03KT 9999 -RA ///CB 18/16 Q1009
04:00
V
19 °C 10 km+ - 220°   220° 4 kt METAR LFSL 230200Z AUTO 22004KT 160V290 9999 -RA //////CB 19/15 Q1010
03:30
V
20 °C 10 km+ - Var   Var 6 kt METAR LFSL 230130Z AUTO VRB06KT 9999 ///CB 20/14 Q1009
03:00
V
21 °C 10 km+ - Var   Var 2 kt METAR LFSL 230100Z AUTO VRB02KT 9999 ///CB 21/15 Q1009
02:30
V
21 °C 10 km+ 13.000 ft 300°   300° 11 kt METAR LFSL 230030Z AUTO 30011KT 9999 FEW025/// BKN130/// BKN160/// ///TCU 21/16 Q1008
02:00
V
22 °C 10 km+ - 270°   270° 7 kt METAR LFSL 230000Z AUTO 27007KT 200V310 9999 ///CB 22/17 Q1009
01:30
V
24 °C 10 km+ - 290°   290° 10 kt METAR LFSL 222330Z AUTO 29010KT 250V310 9999 //////TCU 24/17 Q1007
01:00
V
24 °C 10 km+ - Var   Var 4 kt METAR LFSL 222300Z AUTO VRB04KT 9999 //////TCU 24/16 Q1008
00:30
V
23 °C 10 km+ - Var   Var 2 kt METAR LFSL 222230Z AUTO VRB02KT CAVOK 23/18 Q1008
00:00
V
24 °C 10 km+ - Var   Var 2 kt METAR LFSL 222200Z AUTO VRB02KT CAVOK 24/18 Q1008

22 de mayo de 2022

Hora Código Tiempo Temp. Visibilidad Nubes Viento METAR/SPECI
23:30
V
25 °C 10 km+ - 130°   130° 1 kt METAR LFSL 222130Z AUTO 13001KT CAVOK 25/18 Q1007
23:00
V
26 °C 10 km+ - Var   Var 3 kt METAR LFSL 222100Z AUTO VRB03KT CAVOK 26/17 Q1008
22:30
V
25 °C 10 km+ - 270°   270° 3 16 kt METAR LFSL 222030Z AUTO 27003G16KT 210V320 CAVOK 25/19 Q1007 TEMPO VRB15G25KT 4000 TSRA SCT060CB
22:00
V
26 °C 10 km+ - 270°   270° 5 kt METAR LFSL 222000Z AUTO 27005KT 220V310 CAVOK 26/19 Q1007 TEMPO VRB15G25KT 4000 TSRA SCT060CB
21:30
V
26 °C 10 km+ - Var   Var 3 kt METAR LFSL 221930Z AUTO VRB03KT CAVOK 26/19 Q1007 TEMPO VRB15G25KT 4000 TSRA SCT060CB
21:00
V
27 °C 10 km+ - Var   Var 3 kt METAR LFSL 221900Z AUTO VRB03KT CAVOK 27/19 Q1007 TEMPO 24030G45KT 1500 TSRAGR BKN030CB
20:30
V
28 °C 10 km+ - 190°   190° 2 kt METAR LFSL 221830Z AUTO 19002KT CAVOK 28/20 Q1007 TEMPO 24030G45KT 1500 TSRAGR BKN030CB
20:00
V
29 °C 10 km+ - 190°   190° 5 kt METAR LFSL 221800Z AUTO 19005KT 150V230 CAVOK 29/21 Q1007 TEMPO 24030G45KT 1500 TSRAGR BKN030CB
19:30
V
30 °C 10 km+ - 160°   160° 4 kt METAR LFSL 221730Z AUTO 16004KT 130V210 CAVOK 30/21 Q1007 TEMPO 24030G45KT 1500 TSRAGR BKN030CB
19:00
V
31 °C 10 km+ - Var   Var 2 kt METAR LFSL 221700Z AUTO VRB02KT CAVOK 31/21 Q1007 TEMPO 24030G45KT 1500 TSRAGR BKN030CB
18:30
V
30 °C 10 km+ - Var   Var 3 kt METAR LFSL 221630Z AUTO VRB03KT CAVOK 30/21 Q1008 TEMPO 24030G45KT 1500 TSRAGR BKN030CB
18:00
V
31 °C 10 km+ - 180°   180° 4 kt METAR LFSL 221600Z AUTO 18004KT 140V240 CAVOK 31/20 Q1007 TEMPO VRB15G25KT 4000 TSRA SCT060CB
17:30
V
31 °C 10 km+ - 260°   260° 3 kt METAR LFSL 221530Z AUTO 26003KT 190V330 CAVOK 31/21 Q1008 TEMPO VRB15G25KT 4000 TSRA SCT060CB
17:00
V
31 °C 10 km+ - 280°   280° 4 kt METAR LFSL 221500Z AUTO 28004KT 200V320 CAVOK 31/21 Q1008 NOSIG
16:30
V
31 °C 10 km+ - Var   Var 3 kt METAR LFSL 221430Z AUTO VRB03KT CAVOK 31/20 Q1008 NOSIG
16:00
V
31 °C 10 km+ - 170°   170° 5 kt METAR LFSL 221400Z AUTO 17005KT 110V250 CAVOK 31/20 Q1009 NOSIG
15:30
V
31 °C 10 km+ - Var   Var 3 kt METAR LFSL 221330Z AUTO VRB03KT CAVOK 31/18 Q1009 NOSIG
15:00
V
30 °C 10 km+ - 120°   120° 7 kt METAR LFSL 221300Z AUTO 12007KT 080V170 CAVOK 30/17 Q1009 NOSIG
14:30
V
30 °C 10 km+ - Var   Var 3 kt METAR LFSL 221230Z AUTO VRB03KT 9999 ///TCU 30/18 Q1010 BECMG NSC
14:00
V
30 °C 10 km+ - 170°   170° 4 kt METAR LFSL 221200Z AUTO 17004KT 090V240 CAVOK 30/18 Q1010 NOSIG
13:30
V
29 °C 10 km+ - 150°   150° 7 kt METAR LFSL 221130Z AUTO 15007KT 100V200 CAVOK 29/19 Q1010 NOSIG
13:00
V
28 °C 10 km+ - 120°   120° 11 kt METAR LFSL 221100Z AUTO 12011KT CAVOK 28/20 Q1010 NOSIG
12:30
V
28 °C 10 km+ - 120°   120° 7 kt METAR LFSL 221030Z AUTO 12007KT 090V150 CAVOK 28/19 Q1011 NOSIG
12:00
V
28 °C 10 km+ - 150°   150° 3 kt METAR LFSL 221000Z AUTO 15003KT 050V210 CAVOK 28/19 Q1012 NOSIG
11:30
V
27 °C 10 km+ - 190°   190° 4 kt METAR LFSL 220930Z AUTO 19004KT 140V260 CAVOK 27/19 Q1012 NOSIG
11:00
V
26 °C 10 km+ - 120°   120° 3 kt METAR LFSL 220900Z AUTO 12003KT 080V180 CAVOK 26/19 Q1012 NOSIG
10:30
V
25 °C 10 km+ - Var   Var 2 kt METAR LFSL 220830Z AUTO VRB02KT CAVOK 25/19 Q1013 NOSIG
10:00
V
24 °C 10 km+ - 120°   120° 6 kt METAR LFSL 220800Z AUTO 12006KT CAVOK 24/19 Q1013 NOSIG
09:30
V
23 °C 10 km+ - 130°   130° 4 kt METAR LFSL 220730Z AUTO 13004KT 100V170 CAVOK 23/19 Q1013 NOSIG
09:00
V
22 °C 10 km+ - Var   Var 3 kt METAR LFSL 220700Z AUTO VRB03KT CAVOK 22/19 Q1013 NOSIG
08:30
V
21 °C 10 km+ - Var   000° 0 kt METAR LFSL 220630Z AUTO 00000KT CAVOK 21/19 Q1014 NOSIG
08:00
V
20 °C 10 km+ - 130°   130° 2 kt METAR LFSL 220600Z AUTO 13002KT CAVOK 20/19 Q1013 NOSIG
07:30
V
19 °C 10 km+ - Var   000° 0 kt METAR LFSL 220530Z AUTO 00000KT CAVOK 19/18 Q1013 NOSIG
07:00
V
18 °C 10 km+ - Var   Var 2 kt METAR LFSL 220500Z AUTO VRB02KT CAVOK 18/17 Q1013 NOSIG
06:30
V
18 °C 10 km+ - Var   000° 0 kt METAR LFSL 220430Z AUTO 00000KT CAVOK 18/17 Q1013 NOSIG
06:00
V
18 °C 10 km+ - 120°   120° 1 kt METAR LFSL 220400Z AUTO 12001KT CAVOK 18/17 Q1013 NOSIG
05:30
V
18 °C 10 km+ - Var   000° 0 kt METAR LFSL 220330Z AUTO 00000KT CAVOK 18/17 Q1014 NOSIG
05:00
I
18 °C 4,3 km - Var   Var 2 kt METAR LFSL 220300Z AUTO VRB02KT 9999 4300 NSC 18/17 Q1013 NOSIG
04:30
V
18 °C 10 km+ - 120°   120° 3 kt METAR LFSL 220230Z AUTO 12003KT CAVOK 18/17 Q1013
04:00
V
18 °C 10 km+ - 360°   360° 1 kt METAR LFSL 220200Z AUTO 36001KT CAVOK 18/17 Q1014
03:30
V
18 °C 10 km+ - 190°   190° 2 kt METAR LFSL 220130Z AUTO 19002KT CAVOK 18/17 Q1014
03:00
V
19 °C 10 km+ - Var   Var 1 kt METAR LFSL 220100Z AUTO VRB01KT CAVOK 19/17 Q1014
02:30
V
19 °C 10 km+ - 130°   130° 1 kt METAR LFSL 220030Z AUTO 13001KT CAVOK 19/17 Q1014
02:00
V
19 °C 10 km+ - Var   000° 0 kt METAR LFSL 220000Z AUTO 00000KT CAVOK 19/18 Q1014
01:30
V
19 °C 10 km+ - Var   000° 0 kt METAR LFSL 212330Z AUTO 00000KT CAVOK 19/18 Q1015
01:00
V
20 °C 10 km+ - Var   Var 1 kt METAR LFSL 212300Z AUTO VRB01KT CAVOK 20/18 Q1015
00:30
V
20 °C 10 km+ - Var   000° 0 kt METAR LFSL 212230Z AUTO 00000KT CAVOK 20/18 Q1015
00:00
V
21 °C 10 km+ - Var   Var 2 kt METAR LFSL 212200Z AUTO VRB02KT CAVOK 21/18 Q1016

21 de mayo de 2022

Hora Código Tiempo Temp. Visibilidad Nubes Viento METAR/SPECI
23:30
V
21 °C 10 km+ - 290°   290° 2 kt METAR LFSL 212130Z AUTO 29002KT CAVOK 21/18 Q1016
23:00
V
22 °C 10 km+ - Var   Var 2 kt METAR LFSL 212100Z AUTO VRB02KT CAVOK 22/19 Q1016
22:30
V
23 °C 10 km+ - Var   Var 1 kt METAR LFSL 212030Z AUTO VRB01KT CAVOK 23/19 Q1016
22:00
V
24 °C 10 km+ - 290°   290° 2 kt METAR LFSL 212000Z AUTO 29002KT CAVOK 24/19 Q1016 NOSIG
21:30
V
26 °C 10 km+ - Var   Var 1 kt METAR LFSL 211930Z AUTO VRB01KT CAVOK 26/19 Q1016 NOSIG
21:00
V
27 °C 10 km+ - Var   Var 2 kt METAR LFSL 211900Z AUTO VRB02KT CAVOK 27/19 Q1016 NOSIG
20:30
V
27 °C 10 km+ - 320°   320° 4 kt METAR LFSL 211830Z AUTO 32004KT CAVOK 27/19 Q1016 NOSIG
20:00
V
28 °C 10 km+ - 320°   320° 6 kt METAR LFSL 211800Z AUTO 32006KT CAVOK 28/20 Q1016 NOSIG
19:30
V
29 °C 10 km+ - 330°   330° 6 kt METAR LFSL 211730Z AUTO 33006KT CAVOK 29/19 Q1016 NOSIG
19:00
V
30 °C 10 km+ - 330°   330° 5 kt METAR LFSL 211700Z AUTO 33005KT 300V010 CAVOK 30/19 Q1016 NOSIG
18:30
V
30 °C 10 km+ - 340°   340° 5 kt METAR LFSL 211630Z AUTO 34005KT 290V030 CAVOK 30/19 Q1016 NOSIG
18:00
V
31 °C 10 km+ - 310°   310° 5 kt METAR LFSL 211600Z AUTO 31005KT 270V350 CAVOK 31/19 Q1017 NOSIG
17:30
V
31 °C 10 km+ - 320°   320° 6 kt METAR LFSL 211530Z AUTO 32006KT 280V360 CAVOK 31/19 Q1017 NOSIG
17:00
V
31 °C 10 km+ - 320°   320° 5 kt METAR LFSL 211500Z AUTO 32005KT 280V350 CAVOK 31/18 Q1017 NOSIG
Datos más antiguos

Descarga nuestra aplicación

Acceso fácil a todo el tiempo de la aviación en tu teléfono móvil y tableta.
Con muchas funciones no disponibles en el sitio web, como la compatibilidad sin conexión y una lista personal de aeropuertos.

Nosotros y terceros seguimos tu comportamiento en Internet en nuestro sitio web con cookies. Si continúas, asumimos que estás de acuerdo con nuestra política de cookies. Más información